DMSP 5D-2 F13 DEB, 40583

Orbit data source: Space-Track

DMSP 5D-2 F13 DEB, 40583 is space debris in SSO originally from a launch on Fri, 24 Mar 1995 UTC launched from the Air Force Western Test Range (AFWTR). Debris objects in space refer to the collection of defunct objects orbiting the Earth. Examples of debris include non-operational satellites, rocket bodies, and fragments generated from explosions, collisions, or faulty payload assembly.

Loading next visibility...
Identifier
40583, 1995-015ES
Orbit
SSO
Country
Flag of USUS
Related business
Manufacturer
Unknown
Mission
Spacecraft
Bus & Motor
Unknown
Mass
Unknown
Launch date (UTC)
1995-03-24 (31 years ago)
Launch vehicle
Unknown
Launch site
Air Force Western Test Range (AFWTR)
Object type
Payload
Rocket body
Debris
Shape & HBR
Unknown shape, 0.1 m
Radar Cross Section
Medium (>0.1 m² and <1 m²)

Expand to show TLE details & history
Last TLE update: 3 days ago

TLE from 3 days ago
0 DMSP 5D-2 F13 DEB
1 40583U 95015ES  26169.99231153  .00008084  00000-0  15344-2 0  9996
2 40583  98.5947 266.3382 0024813  81.3594 279.0417 14.64287470586969
Epoch: 2026-06-18T23:48Z
TLE epoch observation values (Epoch: 2026-06-18T23:48:55.716Z)
Latitude
0.00001°
Longitude
1.87836°
Altitude
679.632 km
Speed
7.518 km/s
True Right ascension
17h 45m 21s
True Declination
0° 00' 00"
Sunlit
Object was in full shadow at epoch
Visualization orbit readout
Latitude
Unknown
Longitude
Unknown
Altitude
Unknown
Speed
Unknown
Apparent Right ascension
Unknown
Apparent Declination
Unknown
Sunlit
N/A
Visualization observer readout
Local Sidereal Time
13:33:38
Azimuth
Unknown
Elevation
Unknown
Doppler factor
Unknown
Orbital elements
Apogee altitude
693.963 km
Perigee altitude
658.953 km
Semi-major axis
7,054.595 km
Eccentricity
0.00248
Inclination
98.5947°
RAAN
266.3382°
Arg. of periapsis
81.3594°
True anomaly
278.76076°
Mean anomaly
279.0417°
Eccentric anomaly
278.90124°
Mean motion
3.66298 °/min
Orbital period
98.28 mins
BSTAR
0.0015344
Loading maneuver chart data...
Computing Atmospheric mass density...

Documentation

Showing up to 5 results
|